NRT456 KORD-KROC

Flight info

Callsign NRT456
Flight time 1h 16m
Altitude 27000
Route DUFEE ELX HAAKK DOXXY SOSIC WTEVR DOBIE DKK BUF
Aircraft B738/M-SDE2E3FGHIRWXY/LB1

Departure

Time 2026-04-20 19:10
Airport Chicago O'Hare International Airport (KORD)

Arrival

Time 2026-04-20 20:26
Airport Frederick Douglass Greater Rochester International Airport (KROC)
Time Latitude Longitude Altitude Speed Heading
2026-04-20 18:44 41.97456 -87.89877 659 ft 0 kts 37°
2026-04-20 19:02 41.97454 -87.89880 659 ft 1 kts 30°
2026-04-20 19:02 41.97440 -87.89884 659 ft 2 kts 14°
2026-04-20 19:02 41.97426 -87.89891 659 ft 2 kts 20°
2026-04-20 19:03 41.97412 -87.89897 659 ft 2 kts 18°
2026-04-20 19:03 41.97397 -87.89904 659 ft 2 kts 18°
2026-04-20 19:03 41.97385 -87.89909 659 ft 0 kts 18°
2026-04-20 19:03 41.97379 -87.89913 659 ft 0 kts 66°
2026-04-20 19:04 41.97378 -87.89921 659 ft 1 kts 90°
2026-04-20 19:04 41.97378 -87.89924 659 ft 0 kts 88°
2026-04-20 19:05 41.97379 -87.89912 659 ft 5 kts 90°
2026-04-20 19:05 41.97333 -87.89817 658 ft 17 kts 142°
2026-04-20 19:06 41.97230 -87.89671 656 ft 23 kts 96°
2026-04-20 19:06 41.97219 -87.89521 656 ft 14 kts 130°
2026-04-20 19:06 41.97195 -87.89381 655 ft 18 kts 88°
2026-04-20 19:06 41.97197 -87.89177 655 ft 25 kts 90°
2026-04-20 19:07 41.97194 -87.88911 655 ft 31 kts 90°
2026-04-20 19:07 41.97188 -87.88617 655 ft 31 kts 89°
2026-04-20 19:07 41.97172 -87.88338 655 ft 28 kts 95°
2026-04-20 19:07 41.97168 -87.88089 652 ft 18 kts 100°
2026-04-20 19:08 41.97123 -87.88037 652 ft 0 kts 172°
2026-04-20 19:08 41.97105 -87.88034 652 ft 2 kts 172°
2026-04-20 19:08 41.97059 -87.88031 652 ft 15 kts 179°
2026-04-20 19:09 41.96932 -87.88055 652 ft 18 kts 213°
2026-04-20 19:09 41.96735 -87.88283 656 ft 69 kts 221°
2026-04-20 19:09 41.96207 -87.88908 656 ft 130 kts 219°
2026-04-20 19:09 41.95429 -87.89842 854 ft 158 kts 218°
2026-04-20 19:10 41.94404 -87.90208 1476 ft 161 kts 169°
2026-04-20 19:10 41.93373 -87.89689 2203 ft 161 kts 153°
2026-04-20 19:10 41.92451 -87.88693 2482 ft 185 kts 123°
2026-04-20 19:10 41.92175 -87.86940 2918 ft 202 kts 82°
2026-04-20 19:11 41.92593 -87.85063 3353 ft 217 kts 71°
2026-04-20 19:11 41.93130 -87.83086 3796 ft 231 kts 71°
2026-04-20 19:11 41.93651 -87.80997 4219 ft 246 kts 72°
2026-04-20 19:11 41.94192 -87.78728 4672 ft 260 kts 72°
2026-04-20 19:12 41.94762 -87.76328 5138 ft 272 kts 72°
2026-04-20 19:12 41.95341 -87.73907 5846 ft 275 kts 71°
2026-04-20 19:12 41.95930 -87.71455 6532 ft 279 kts 71°
2026-04-20 19:12 41.96524 -87.68976 7233 ft 282 kts 70°
2026-04-20 19:13 41.97125 -87.66463 7911 ft 287 kts 69°
2026-04-20 19:13 41.97741 -87.63887 8597 ft 291 kts 68°
2026-04-20 19:13 41.98351 -87.61330 9271 ft 295 kts 67°
2026-04-20 19:13 41.98991 -87.58649 9975 ft 298 kts 66°
2026-04-20 19:14 41.99635 -87.55955 10466 ft 310 kts 66°
2026-04-20 19:14 42.00314 -87.53118 10904 ft 324 kts 66°
2026-04-20 19:14 42.01011 -87.50199 11336 ft 337 kts 66°
2026-04-20 19:14 42.01739 -87.47127 12034 ft 341 kts 66°
2026-04-20 19:15 42.02456 -87.44092 12778 ft 344 kts 66°
2026-04-20 19:15 42.03185 -87.40997 13533 ft 349 kts 66°
2026-04-20 19:15 42.03919 -87.37888 14238 ft 352 kts 65°
2026-04-20 19:15 42.04672 -87.34699 15008 ft 356 kts 66°
2026-04-20 19:16 42.05440 -87.31451 15651 ft 361 kts 65°
2026-04-20 19:16 42.06187 -87.28273 16374 ft 363 kts 65°
2026-04-20 19:16 42.06955 -87.25004 17012 ft 368 kts 65°
2026-04-20 19:16 42.07727 -87.21712 17666 ft 371 kts 65°
2026-04-20 19:17 42.08508 -87.18390 18290 ft 375 kts 65°
2026-04-20 19:17 42.09297 -87.15027 18852 ft 380 kts 65°
2026-04-20 19:17 42.10100 -87.11601 19520 ft 382 kts 65°
2026-04-20 19:17 42.10809 -87.08146 20071 ft 391 kts 70°
2026-04-20 19:18 42.11269 -87.04515 20699 ft 398 kts 75°
2026-04-20 19:18 42.11543 -87.00735 21299 ft 404 kts 78°
2026-04-20 19:18 42.11717 -86.96962 21800 ft 411 kts 79°
2026-04-20 19:18 42.11849 -86.93115 22393 ft 414 kts 80°
2026-04-20 19:19 42.11973 -86.89213 22875 ft 418 kts 80°
2026-04-20 19:19 42.12093 -86.85316 23434 ft 421 kts 80°
2026-04-20 19:19 42.12217 -86.81396 23926 ft 424 kts 79°
2026-04-20 19:19 42.12349 -86.77389 24454 ft 427 kts 79°
2026-04-20 19:20 42.12481 -86.73428 25000 ft 428 kts 79°
2026-04-20 19:20 42.12617 -86.69426 25434 ft 433 kts 79°
2026-04-20 19:20 42.12756 -86.65362 25934 ft 435 kts 78°
2026-04-20 19:20 42.12891 -86.61300 26432 ft 437 kts 78°
2026-04-20 19:21 42.13026 -86.57209 26938 ft 439 kts 78°
2026-04-20 19:21 42.13160 -86.53118 27305 ft 443 kts 78°
2026-04-20 19:21 42.13302 -86.48904 27349 ft 447 kts 78°
2026-04-20 19:21 42.13441 -86.44678 27357 ft 449 kts 78°
2026-04-20 19:22 42.13586 -86.40392 27354 ft 460 kts 78°
2026-04-20 19:22 42.13737 -86.36028 27355 ft 471 kts 78°
2026-04-20 19:22 42.13887 -86.31548 27347 ft 482 kts 79°
2026-04-20 19:22 42.14036 -86.26997 27347 ft 487 kts 79°
2026-04-20 19:23 42.14177 -86.22398 27335 ft 489 kts 80°
2026-04-20 19:23 42.14309 -86.17826 27342 ft 486 kts 80°
2026-04-20 19:23 42.14438 -86.13277 27338 ft 486 kts 80°
2026-04-20 19:23 42.14535 -86.08763 27332 ft 488 kts 81°
2026-04-20 19:24 42.14552 -86.04139 27328 ft 489 kts 82°
2026-04-20 19:24 42.14514 -85.99590 27328 ft 488 kts 83°
2026-04-20 19:24 42.14452 -85.95028 27328 ft 489 kts 83°
2026-04-20 19:24 42.14386 -85.90430 27327 ft 489 kts 83°
2026-04-20 19:25 42.14323 -85.85848 27331 ft 489 kts 83°
2026-04-20 19:25 42.14264 -85.81299 27332 ft 487 kts 83°
2026-04-20 19:25 42.14210 -85.76693 27334 ft 487 kts 83°
2026-04-20 19:25 42.14160 -85.72141 27338 ft 488 kts 83°
2026-04-20 19:26 42.14113 -85.67570 27339 ft 487 kts 82°
2026-04-20 19:26 42.14067 -85.62993 27344 ft 488 kts 83°
2026-04-20 19:26 42.14023 -85.58425 27347 ft 489 kts 83°
2026-04-20 19:26 42.13975 -85.53871 27342 ft 487 kts 83°
2026-04-20 19:27 42.13924 -85.49268 27347 ft 488 kts 83°
2026-04-20 19:27 42.13873 -85.44714 27350 ft 487 kts 83°
2026-04-20 19:27 42.13820 -85.40144 27349 ft 487 kts 83°
2026-04-20 19:27 42.13767 -85.35548 27342 ft 487 kts 83°
2026-04-20 19:28 42.13713 -85.31007 27343 ft 489 kts 83°
2026-04-20 19:28 42.13657 -85.26413 27344 ft 488 kts 83°
2026-04-20 19:28 42.13598 -85.21855 27341 ft 488 kts 84°
2026-04-20 19:28 42.13537 -85.17264 27346 ft 488 kts 83°
2026-04-20 19:29 42.13471 -85.12709 27348 ft 487 kts 83°
2026-04-20 19:29 42.13405 -85.08164 27354 ft 488 kts 83°
2026-04-20 19:29 42.13336 -85.03558 27355 ft 488 kts 83°
2026-04-20 19:29 42.13266 -84.99021 27357 ft 488 kts 83°
2026-04-20 19:30 42.13186 -84.94459 27355 ft 485 kts 84°
2026-04-20 19:30 42.13105 -84.89893 27356 ft 489 kts 83°
2026-04-20 19:30 42.13021 -84.85375 27354 ft 486 kts 83°
2026-04-20 19:30 42.12933 -84.80836 27352 ft 486 kts 84°
2026-04-20 19:31 42.12844 -84.76279 27351 ft 486 kts 83°
2026-04-20 19:31 42.12755 -84.71741 27347 ft 485 kts 83°
2026-04-20 19:31 42.12663 -84.67113 27351 ft 487 kts 83°
2026-04-20 19:31 42.12573 -84.62584 27348 ft 487 kts 83°
2026-04-20 19:32 42.12476 -84.58028 27353 ft 484 kts 83°
2026-04-20 19:32 42.12381 -84.53468 27354 ft 486 kts 83°
2026-04-20 19:32 42.12363 -84.48978 27352 ft 482 kts 79°
2026-04-20 19:32 42.12563 -84.44498 27352 ft 477 kts 76°
2026-04-20 19:33 42.12939 -84.40035 27352 ft 476 kts 73°
2026-04-20 19:33 42.13400 -84.35681 27357 ft 473 kts 72°
2026-04-20 19:33 42.13907 -84.31330 27345 ft 471 kts 72°
2026-04-20 19:33 42.14436 -84.26952 27350 ft 473 kts 72°
2026-04-20 19:34 42.14966 -84.22549 27344 ft 472 kts 72°
2026-04-20 19:34 42.15482 -84.18161 27341 ft 471 kts 72°
2026-04-20 19:34 42.15985 -84.13818 27346 ft 473 kts 72°
2026-04-20 19:34 42.16483 -84.09426 27344 ft 472 kts 72°
2026-04-20 19:35 42.16969 -84.05069 27345 ft 470 kts 72°
2026-04-20 19:35 42.17454 -84.00693 27341 ft 471 kts 72°
2026-04-20 19:35 42.17933 -83.96330 27342 ft 471 kts 72°
2026-04-20 19:35 42.18398 -83.92077 27349 ft 473 kts 73°
2026-04-20 19:36 42.18874 -83.87701 27347 ft 472 kts 72°
2026-04-20 19:36 42.19350 -83.83300 27353 ft 473 kts 72°
2026-04-20 19:36 42.19821 -83.78902 27346 ft 471 kts 72°
2026-04-20 19:36 42.20295 -83.74473 27345 ft 473 kts 72°
2026-04-20 19:37 42.20760 -83.70100 27366 ft 470 kts 72°
2026-04-20 19:37 42.21227 -83.65701 27350 ft 470 kts 72°
2026-04-20 19:37 42.21692 -83.61322 27357 ft 471 kts 72°
2026-04-20 19:37 42.22158 -83.56917 27357 ft 471 kts 72°
2026-04-20 19:38 42.22615 -83.52564 27356 ft 471 kts 72°
2026-04-20 19:38 42.23080 -83.48189 27365 ft 472 kts 72°
2026-04-20 19:38 42.23601 -83.43828 27363 ft 466 kts 70°
2026-04-20 19:38 42.24183 -83.39515 27352 ft 464 kts 69°
2026-04-20 19:39 42.24808 -83.35193 27364 ft 465 kts 69°
2026-04-20 19:39 42.25431 -83.30940 27366 ft 466 kts 70°
2026-04-20 19:39 42.26057 -83.26633 27362 ft 465 kts 70°
2026-04-20 19:39 42.26675 -83.22325 27362 ft 467 kts 70°
2026-04-20 19:40 42.27288 -83.18010 27365 ft 466 kts 70°
2026-04-20 19:40 42.27891 -83.13715 27364 ft 466 kts 70°
2026-04-20 19:40 42.28486 -83.09442 27362 ft 465 kts 70°
2026-04-20 19:40 42.29075 -83.05182 27364 ft 466 kts 70°
2026-04-20 19:41 42.29663 -83.00904 27361 ft 463 kts 70°
2026-04-20 19:41 42.30248 -82.96616 27366 ft 466 kts 70°
2026-04-20 19:41 42.30829 -82.92335 27356 ft 465 kts 70°
2026-04-20 19:41 42.31412 -82.88024 27363 ft 464 kts 70°
2026-04-20 19:42 42.31988 -82.83766 27362 ft 467 kts 70°
2026-04-20 19:42 42.32574 -82.79423 27361 ft 466 kts 70°
2026-04-20 19:42 42.33150 -82.75125 27363 ft 465 kts 70°
2026-04-20 19:42 42.33720 -82.70840 27363 ft 464 kts 70°
2026-04-20 19:43 42.34290 -82.66565 27360 ft 464 kts 70°
2026-04-20 19:43 42.34856 -82.62303 27357 ft 462 kts 70°
2026-04-20 19:43 42.35426 -82.57993 27363 ft 462 kts 70°
2026-04-20 19:43 42.35995 -82.53711 27366 ft 463 kts 70°
2026-04-20 19:44 42.36556 -82.49454 27362 ft 462 kts 70°
2026-04-20 19:44 42.37125 -82.45149 27360 ft 465 kts 70°
2026-04-20 19:44 42.37691 -82.40832 27362 ft 464 kts 70°
2026-04-20 19:44 42.38241 -82.36605 27365 ft 462 kts 70°
2026-04-20 19:45 42.38801 -82.32290 27361 ft 463 kts 70°
2026-04-20 19:45 42.39357 -82.28012 27361 ft 462 kts 70°
2026-04-20 19:45 42.39904 -82.23758 27358 ft 460 kts 70°
2026-04-20 19:45 42.40457 -82.19476 27357 ft 461 kts 70°
2026-04-20 19:46 42.41009 -82.15180 27361 ft 462 kts 70°
2026-04-20 19:46 42.41560 -82.10883 27365 ft 461 kts 70°
2026-04-20 19:46 42.42112 -82.06569 27361 ft 462 kts 70°
2026-04-20 19:46 42.42651 -82.02329 27366 ft 460 kts 70°
2026-04-20 19:47 42.43195 -81.98058 27365 ft 462 kts 70°
2026-04-20 19:47 42.43741 -81.93761 27360 ft 463 kts 70°
2026-04-20 19:47 42.44284 -81.89459 27355 ft 460 kts 70°
2026-04-20 19:47 42.44819 -81.85211 27353 ft 462 kts 70°
2026-04-20 19:48 42.45352 -81.80960 27352 ft 463 kts 70°
2026-04-20 19:48 42.45846 -81.76627 27349 ft 461 kts 72°
2026-04-20 19:48 42.46141 -81.72340 27348 ft 467 kts 77°
2026-04-20 19:48 42.46185 -81.67879 27344 ft 475 kts 81°
2026-04-20 19:49 42.46055 -81.63377 27347 ft 481 kts 83°
2026-04-20 19:49 42.45835 -81.58907 27345 ft 478 kts 84°
2026-04-20 19:49 42.45571 -81.54402 27344 ft 477 kts 84°
2026-04-20 19:49 42.45300 -81.49904 27346 ft 478 kts 85°
2026-04-20 19:50 42.45038 -81.45493 27345 ft 478 kts 85°
2026-04-20 19:50 42.44777 -81.40977 27346 ft 477 kts 84°
2026-04-20 19:50 42.44527 -81.36497 27347 ft 479 kts 84°
2026-04-20 19:50 42.44284 -81.32027 27347 ft 480 kts 85°
2026-04-20 19:51 42.44040 -81.27486 27347 ft 477 kts 85°
2026-04-20 19:51 42.43801 -81.23043 27349 ft 477 kts 84°
2026-04-20 19:51 42.43562 -81.18540 27350 ft 477 kts 84°
2026-04-20 19:51 42.43325 -81.14029 27348 ft 480 kts 84°
2026-04-20 19:52 42.43085 -81.09531 27351 ft 476 kts 84°
2026-04-20 19:52 42.42869 -81.05077 27353 ft 477 kts 82°
2026-04-20 19:52 42.42828 -81.00642 27354 ft 470 kts 79°
2026-04-20 19:52 42.42940 -80.96244 27354 ft 466 kts 77°
2026-04-20 19:53 42.43137 -80.91840 27348 ft 466 kts 76°
2026-04-20 19:53 42.43364 -80.87476 27350 ft 464 kts 76°
2026-04-20 19:53 42.43596 -80.83124 27351 ft 466 kts 75°
2026-04-20 19:53 42.43818 -80.78758 27358 ft 465 kts 76°
2026-04-20 19:54 42.44029 -80.74395 27351 ft 468 kts 76°
2026-04-20 19:54 42.44226 -80.70011 27351 ft 466 kts 76°
2026-04-20 19:54 42.44408 -80.65620 27349 ft 464 kts 76°
2026-04-20 19:54 42.44584 -80.61269 27350 ft 468 kts 76°
2026-04-20 19:55 42.44761 -80.56848 27346 ft 466 kts 77°
2026-04-20 19:55 42.44933 -80.52488 27343 ft 468 kts 77°
2026-04-20 19:55 42.45103 -80.48094 27343 ft 465 kts 77°
2026-04-20 19:55 42.45267 -80.43753 27332 ft 466 kts 77°
2026-04-20 19:56 42.45376 -80.40845 27333 ft 464 kts 77°
2026-04-20 19:56 42.45593 -80.35001 27333 ft 468 kts 77°
2026-04-20 19:56 42.45758 -80.30544 27330 ft 467 kts 78°
2026-04-20 19:56 42.45916 -80.26155 27333 ft 464 kts 78°
2026-04-20 19:57 42.46070 -80.21802 27323 ft 465 kts 78°
2026-04-20 19:57 42.46226 -80.17429 27317 ft 467 kts 78°
2026-04-20 19:57 42.46382 -80.13055 27314 ft 468 kts 78°
2026-04-20 19:57 42.46536 -80.08643 27322 ft 468 kts 78°
2026-04-20 19:58 42.46688 -80.04243 27320 ft 466 kts 78°
2026-04-20 19:58 42.46833 -79.99906 27315 ft 466 kts 78°
2026-04-20 19:58 42.46979 -79.95527 27321 ft 464 kts 78°
2026-04-20 19:58 42.47079 -79.92574 27318 ft 468 kts 78°
2026-04-20 19:59 42.47273 -79.86730 27318 ft 466 kts 78°
2026-04-20 19:59 42.47412 -79.82369 27317 ft 466 kts 78°
2026-04-20 19:59 42.47554 -79.77943 27321 ft 469 kts 78°
2026-04-20 19:59 42.47691 -79.73549 27316 ft 467 kts 78°
2026-04-20 20:00 42.47821 -79.69206 27318 ft 464 kts 78°
2026-04-20 20:00 42.47954 -79.64814 27317 ft 467 kts 78°
2026-04-20 20:00 42.48089 -79.60423 27314 ft 463 kts 78°
2026-04-20 20:00 42.48219 -79.56095 27315 ft 464 kts 78°
2026-04-20 20:01 42.48353 -79.51693 27322 ft 466 kts 78°
2026-04-20 20:01 42.48483 -79.47284 27319 ft 464 kts 78°
2026-04-20 20:01 42.48608 -79.42929 27330 ft 464 kts 79°
2026-04-20 20:01 42.48736 -79.38538 27329 ft 467 kts 79°
2026-04-20 20:02 42.48869 -79.34132 27334 ft 467 kts 79°
2026-04-20 20:02 42.49106 -79.29809 27333 ft 460 kts 75°
2026-04-20 20:02 42.49623 -79.25575 27340 ft 450 kts 68°
2026-04-20 20:02 42.50445 -79.21509 27336 ft 445 kts 64°
2026-04-20 20:03 42.51436 -79.17531 27334 ft 444 kts 61°
2026-04-20 20:03 42.52508 -79.13612 27337 ft 443 kts 60°
2026-04-20 20:03 42.53598 -79.09739 27331 ft 442 kts 60°
2026-04-20 20:03 42.54697 -79.05848 27322 ft 443 kts 60°
2026-04-20 20:04 42.55789 -79.01932 27326 ft 440 kts 60°
2026-04-20 20:04 42.56868 -78.98010 27315 ft 444 kts 61°
2026-04-20 20:04 42.57926 -78.94104 27304 ft 443 kts 61°
2026-04-20 20:04 42.58977 -78.90188 27299 ft 444 kts 61°
2026-04-20 20:05 42.60024 -78.86265 27297 ft 446 kts 61°
2026-04-20 20:05 42.61087 -78.82269 27287 ft 451 kts 62°
2026-04-20 20:05 42.62156 -78.78226 26983 ft 448 kts 62°
2026-04-20 20:05 42.63198 -78.74250 26376 ft 444 kts 62°
2026-04-20 20:06 42.64223 -78.70322 25594 ft 444 kts 62°
2026-04-20 20:06 42.65243 -78.66425 24702 ft 446 kts 62°
2026-04-20 20:06 42.66287 -78.62446 23699 ft 449 kts 62°
2026-04-20 20:06 42.67341 -78.58428 22847 ft 448 kts 63°
2026-04-20 20:07 42.68360 -78.54518 22204 ft 442 kts 63°
2026-04-20 20:07 42.69371 -78.50622 21518 ft 438 kts 63°
2026-04-20 20:07 42.70367 -78.46776 20778 ft 427 kts 64°
2026-04-20 20:07 42.71330 -78.43032 20083 ft 410 kts 64°
2026-04-20 20:08 42.72266 -78.39399 19365 ft 411 kts 64°
2026-04-20 20:08 42.73225 -78.35722 18718 ft 414 kts 64°
2026-04-20 20:08 42.74218 -78.31913 18037 ft 414 kts 65°
2026-04-20 20:08 42.75159 -78.28270 17327 ft 401 kts 65°
2026-04-20 20:09 42.76071 -78.24720 16600 ft 398 kts 66°
2026-04-20 20:09 42.76987 -78.21167 15866 ft 400 kts 66°
2026-04-20 20:09 42.77905 -78.17606 15158 ft 396 kts 66°
2026-04-20 20:09 42.78810 -78.14082 14460 ft 391 kts 66°
2026-04-20 20:10 42.79681 -78.10674 13744 ft 377 kts 66°
2026-04-20 20:10 42.80533 -78.07330 12529 ft 376 kts 67°
2026-04-20 20:10 42.81389 -78.03979 11900 ft 367 kts 67°
2026-04-20 20:10 42.82236 -78.00672 11384 ft 372 kts 67°
2026-04-20 20:11 42.83080 -77.97368 11014 ft 361 kts 67°
2026-04-20 20:11 42.83886 -77.94189 10812 ft 346 kts 68°
2026-04-20 20:11 42.84644 -77.91186 10684 ft 331 kts 68°
2026-04-20 20:11 42.85387 -77.88242 10543 ft 317 kts 67°
2026-04-20 20:12 42.86086 -77.85481 10394 ft 305 kts 67°
2026-04-20 20:12 42.86769 -77.82788 10244 ft 294 kts 67°
2026-04-20 20:12 42.87427 -77.80197 10098 ft 284 kts 67°
2026-04-20 20:13 42.88695 -77.75143 9388 ft 282 kts 69°
2026-04-20 20:13 42.89249 -77.72576 8988 ft 282 kts 71°
2026-04-20 20:13 42.89780 -77.69987 8592 ft 282 kts 71°
2026-04-20 20:13 42.90304 -77.67415 8198 ft 282 kts 71°
2026-04-20 20:14 42.90832 -77.64842 7802 ft 281 kts 71°
2026-04-20 20:14 42.91360 -77.62288 7412 ft 281 kts 71°
2026-04-20 20:14 42.91885 -77.59762 7021 ft 280 kts 71°
2026-04-20 20:14 42.92421 -77.57196 6618 ft 279 kts 71°
2026-04-20 20:15 42.92961 -77.54646 6218 ft 278 kts 70°
2026-04-20 20:15 42.93495 -77.52133 5830 ft 278 kts 71°
2026-04-20 20:15 42.94034 -77.49595 5433 ft 277 kts 71°
2026-04-20 20:15 42.94574 -77.47063 5041 ft 276 kts 70°
2026-04-20 20:16 42.95105 -77.44561 4653 ft 275 kts 70°
2026-04-20 20:16 42.95628 -77.42089 4268 ft 274 kts 70°
2026-04-20 20:16 42.96163 -77.39557 3875 ft 273 kts 70°
2026-04-20 20:16 42.96689 -77.37054 3481 ft 272 kts 70°
2026-04-20 20:17 42.97271 -77.34607 3084 ft 269 kts 60°
2026-04-20 20:17 42.98439 -77.32732 2694 ft 251 kts 32°
2026-04-20 20:17 42.99888 -77.31585 2378 ft 228 kts 24°
2026-04-20 20:17 43.01227 -77.30636 2332 ft 203 kts 19°
2026-04-20 20:18 43.02539 -77.30265 2368 ft 190 kts 358°
2026-04-20 20:18 43.03861 -77.30283 2360 ft 190 kts 355°
2026-04-20 20:18 43.05176 -77.30316 2363 ft 189 kts 356°
2026-04-20 20:18 43.06507 -77.30333 2366 ft 189 kts 356°
2026-04-20 20:19 43.07823 -77.30351 2364 ft 189 kts 356°
2026-04-20 20:19 43.09150 -77.30401 2360 ft 184 kts 349°
2026-04-20 20:19 43.10222 -77.31184 2381 ft 177 kts 310°
2026-04-20 20:19 43.10898 -77.32591 2364 ft 176 kts 299°
2026-04-20 20:20 43.11444 -77.34067 2359 ft 171 kts 297°
2026-04-20 20:20 43.11983 -77.35561 2362 ft 175 kts 297°
2026-04-20 20:20 43.12511 -77.37013 2364 ft 161 kts 296°
2026-04-20 20:20 43.12851 -77.38456 2361 ft 155 kts 283°
2026-04-20 20:21 43.12960 -77.39938 2379 ft 159 kts 276°
2026-04-20 20:21 43.12980 -77.41348 2397 ft 134 kts 274°
2026-04-20 20:21 43.12967 -77.42612 2342 ft 127 kts 274°
2026-04-20 20:21 43.12948 -77.43799 2358 ft 122 kts 274°
2026-04-20 20:22 43.12926 -77.44950 2366 ft 122 kts 272°
2026-04-20 20:22 43.12894 -77.46081 2365 ft 116 kts 275°
2026-04-20 20:22 43.12866 -77.47192 2373 ft 116 kts 274°
2026-04-20 20:22 43.12838 -77.48334 2383 ft 121 kts 273°
2026-04-20 20:23 43.12806 -77.49478 2361 ft 120 kts 273°
2026-04-20 20:23 43.12770 -77.50594 2370 ft 121 kts 274°
2026-04-20 20:23 43.12744 -77.51733 2377 ft 120 kts 273°
2026-04-20 20:23 43.12709 -77.52891 2380 ft 118 kts 274°
2026-04-20 20:24 43.12678 -77.54063 2362 ft 128 kts 273°
2026-04-20 20:24 43.12644 -77.55278 2118 ft 129 kts 272°
2026-04-20 20:24 43.12608 -77.56481 1929 ft 125 kts 273°
2026-04-20 20:24 43.12574 -77.57694 1772 ft 125 kts 274°
2026-04-20 20:25 43.12538 -77.58855 1570 ft 125 kts 272°
2026-04-20 20:25 43.12504 -77.60038 1426 ft 123 kts 274°
2026-04-20 20:25 43.12474 -77.61229 1230 ft 125 kts 272°
2026-04-20 20:25 43.12445 -77.62430 1116 ft 127 kts 272°
2026-04-20 20:26 43.12395 -77.63622 932 ft 126 kts 274°
2026-04-20 20:26 43.12350 -77.64803 720 ft 122 kts 275°
2026-04-20 20:26 43.12325 -77.65937 548 ft 114 kts 272°
2026-04-20 20:26 43.12324 -77.66717 555 ft 43 kts 264°
2026-04-20 20:27 43.12311 -77.67017 560 ft 28 kts 264°
2026-04-20 20:27 43.12350 -77.67091 561 ft 7 kts 343°
2026-04-20 20:27 43.12420 -77.67100 562 ft 17 kts
2026-04-20 20:27 43.12552 -77.67001 561 ft 22 kts 42°
2026-04-20 20:28 43.12639 -77.66855 561 ft 17 kts 80°
2026-04-20 20:28 43.12635 -77.66762 559 ft 0 kts 97°